Powrót do katalogu

LING QIAO

AktywnyNaukaSSO
NORAD 40136·PAYLOAD·🇨🇳 China

Wystrzelony Sep 4, 2014 z Jiuquan Satellite Launch Center

Loading…

Następne Przeloty (najbliższe 24 godziny)

TLE

ŚwieżeSource: Space-Track

Epoka: Sep 14, 2026, 14:26 UTC

1 40136U 14051A   26257.60163311 -.00000112  00000-0 -25835-4 0  9991
2 40136  98.7106 259.4867 0019722 271.8872  88.0051 14.30282086627780

Śledź LING QIAO w czasie rzeczywistym z AllMySat

Download on the App Store